Time,TemperatureF,DewpointF,PressureIn,WindDirection,WindDirectionDegrees,WindSpeedMPH,WindSpeedGustMPH,Humidity,HourlyPrecipIn,Conditions,Clouds,dailyrainin,SoftwareType,DateUTC
2013-10-07 00:00:00,74.9,69.4,29.85,ESE,114,0.0,0.0,83,0.00,,,0.00,Wunderground v.1.15,2013-10-07 04:00:00,
2013-10-07 00:05:00,74.9,69.4,29.84,ESE,114,0.0,0.0,83,0.00,,,0.00,Wunderground v.1.15,2013-10-07 04:05:00,
2013-10-07 00:15:00,74.9,69.4,29.84,ESE,114,0.0,0.0,83,0.00,,,0.00,Wunderground v.1.15,2013-10-07 04:15:00,
2013-10-07 00:20:00,74.9,69.4,29.84,ESE,114,0.0,0.0,83,0.00,,,0.00,Wunderground v.1.15,2013-10-07 04:20:00,
2013-10-07 00:25:00,74.9,69.4,29.84,ESE,114,0.0,0.0,83,0.00,,,0.00,Wunderground v.1.15,2013-10-07 04:25:00,
2013-10-07 00:30:00,74.8,69.3,29.84,ESE,114,0.0,0.0,83,0.00,,,0.00,Wunderground v.1.15,2013-10-07 04:30:00,
2013-10-07 00:35:00,74.8,69.3,29.84,ESE,114,0.0,0.0,83,0.00,,,0.00,Wunderground v.1.15,2013-10-07 04:35:00,
2013-10-07 00:40:00,74.8,69.3,29.84,ESE,114,0.0,0.0,83,0.00,,,0.00,Wunderground v.1.15,2013-10-07 04:40:00,
2013-10-07 00:45:00,74.7,69.2,29.83,ESE,114,0.0,0.0,83,0.00,,,0.00,Wunderground v.1.15,2013-10-07 04:45:00,
2013-10-07 00:50:00,74.6,69.1,29.83,ESE,114,0.0,0.0,83,0.00,,,0.00,Wunderground v.1.15,2013-10-07 04:50:00,
2013-10-07 00:55:00,74.6,69.1,29.83,ESE,114,0.0,0.0,83,0.00,,,0.00,Wunderground v.1.15,2013-10-07 04:55:00,
2013-10-07 01:05:00,74.4,68.9,29.83,ESE,114,0.0,0.0,83,0.00,,,0.00,Wunderground v.1.15,2013-10-07 05:05:00,
2013-10-07 01:10:00,74.3,68.8,29.83,ESE,114,0.0,0.0,83,0.00,,,0.00,Wunderground v.1.15,2013-10-07 05:10:00,
2013-10-07 01:15:00,74.2,68.7,29.83,ESE,114,0.0,0.0,83,0.00,,,0.00,Wunderground v.1.15,2013-10-07 05:15:00,
2013-10-07 01:20:00,74.1,68.6,29.83,ESE,114,0.0,0.0,83,0.00,,,0.00,Wunderground v.1.15,2013-10-07 05:20:00,
2013-10-07 01:25:00,74.0,68.5,29.83,ESE,114,0.0,0.0,83,0.00,,,0.00,Wunderground v.1.15,2013-10-07 05:25:00,
2013-10-07 01:30:00,73.8,68.3,29.83,ESE,114,0.0,0.0,83,0.00,,,0.00,Wunderground v.1.15,2013-10-07 05:30:00,
2013-10-07 01:35:00,73.5,68.0,29.83,ESE,114,0.0,0.0,83,0.00,,,0.00,Wunderground v.1.15,2013-10-07 05:35:00,
2013-10-07 01:40:00,73.2,67.7,29.83,ESE,114,0.0,0.0,83,0.00,,,0.00,Wunderground v.1.15,2013-10-07 05:40:00,
2013-10-07 01:45:00,72.8,67.3,29.83,ESE,114,0.0,0.0,83,0.00,,,0.00,Wunderground v.1.15,2013-10-07 05:45:00,
2013-10-07 01:50:00,72.4,66.9,29.83,ESE,114,0.0,0.0,83,0.00,,,0.00,Wunderground v.1.15,2013-10-07 05:50:00,
2013-10-07 01:55:00,72.1,66.6,29.83,ESE,114,0.0,0.0,83,0.00,,,0.00,Wunderground v.1.15,2013-10-07 05:55:00,
2013-10-07 02:00:00,71.8,66.4,29.83,ESE,114,0.0,0.0,83,0.00,,,0.00,Wunderground v.1.15,2013-10-07 06:00:00,
2013-10-07 02:05:00,71.6,66.5,29.83,ESE,114,0.0,0.0,84,0.00,,,0.00,Wunderground v.1.15,2013-10-07 06:05:00,
2013-10-07 02:10:00,71.3,65.9,29.82,ESE,114,0.0,0.0,83,0.00,,,0.00,Wunderground v.1.15,2013-10-07 06:10:00,
2013-10-07 02:15:00,71.3,65.9,29.82,ESE,114,0.0,0.0,83,0.00,,,0.00,Wunderground v.1.15,2013-10-07 06:15:00,
2013-10-07 02:20:00,71.1,65.7,29.82,ESE,114,0.0,0.0,83,0.00,,,0.00,Wunderground v.1.15,2013-10-07 06:20:00,
2013-10-07 02:25:00,70.8,65.7,29.82,ESE,114,0.0,0.0,84,0.00,,,0.00,Wunderground v.1.15,2013-10-07 06:25:00,
2013-10-07 02:30:00,70.6,65.5,29.82,ESE,114,0.0,0.0,84,0.00,,,0.00,Wunderground v.1.15,2013-10-07 06:30:00,
2013-10-07 02:35:00,70.5,65.1,29.82,ESE,114,0.0,0.0,83,0.00,,,0.00,Wunderground v.1.15,2013-10-07 06:35:00,
2013-10-07 02:40:00,70.4,65.3,29.82,ESE,114,0.0,0.0,84,0.00,,,0.00,Wunderground v.1.15,2013-10-07 06:40:00,
2013-10-07 02:45:00,70.2,65.1,29.82,ESE,114,0.0,0.0,84,0.00,,,0.00,Wunderground v.1.15,2013-10-07 06:45:00,
2013-10-07 02:50:00,70.1,65.0,29.82,ESE,114,0.0,0.0,84,0.00,,,0.00,Wunderground v.1.15,2013-10-07 06:50:00,
2013-10-07 02:55:00,70.0,64.9,29.82,ESE,114,0.0,0.0,84,0.00,,,0.00,Wunderground v.1.15,2013-10-07 06:55:00,
2013-10-07 03:00:00,69.9,64.8,29.81,ESE,114,0.0,0.0,84,0.00,,,0.00,Wunderground v.1.15,2013-10-07 07:00:00,
2013-10-07 03:05:00,69.8,65.1,29.81,ESE,114,0.0,0.0,85,0.00,,,0.00,Wunderground v.1.15,2013-10-07 07:05:00,
2013-10-07 03:15:00,69.8,65.1,29.80,ESE,114,0.0,0.0,85,0.00,,,0.00,Wunderground v.1.15,2013-10-07 07:15:00,
2013-10-07 03:20:00,69.8,65.1,29.80,ESE,114,0.0,0.0,85,0.00,,,0.00,Wunderground v.1.15,2013-10-07 07:20:00,
2013-10-07 03:25:00,69.8,64.4,29.80,ESE,114,0.0,0.0,83,0.00,,,0.00,Wunderground v.1.15,2013-10-07 07:25:00,
2013-10-07 03:35:00,72.8,67.3,29.79,ESE,114,0.0,0.0,83,0.00,,,0.00,Wunderground v.1.15,2013-10-07 07:35:00,
2013-10-07 03:40:00,73.6,68.1,29.79,ESE,114,0.0,0.0,83,0.00,,,0.00,Wunderground v.1.15,2013-10-07 07:40:00,
2013-10-07 03:45:00,74.0,68.5,29.79,ESE,114,0.0,0.0,83,0.00,,,0.00,Wunderground v.1.15,2013-10-07 07:45:00,
2013-10-07 03:50:00,74.2,68.7,29.79,ESE,114,1.0,1.0,83,0.00,,,0.00,Wunderground v.1.15,2013-10-07 07:50:00,
2013-10-07 03:55:00,74.2,68.7,29.79,ESE,114,0.0,1.0,83,0.00,,,0.00,Wunderground v.1.15,2013-10-07 07:55:00,
2013-10-07 04:05:00,74.4,68.9,29.80,ESE,114,0.0,0.0,83,0.00,,,0.00,Wunderground v.1.15,2013-10-07 08:05:00,
2013-10-07 04:15:00,74.1,68.6,29.79,ESE,114,0.0,0.0,83,0.00,,,0.00,Wunderground v.1.15,2013-10-07 08:15:00,
2013-10-07 04:20:00,73.8,68.3,29.79,ESE,114,0.0,0.0,83,0.00,,,0.00,Wunderground v.1.15,2013-10-07 08:20:00,
2013-10-07 04:25:00,73.8,68.3,29.80,ESE,114,0.0,0.0,83,0.00,,,0.00,Wunderground v.1.15,2013-10-07 08:25:00,
2013-10-07 04:30:00,73.8,68.3,29.80,ESE,114,0.0,0.0,83,0.00,,,0.00,Wunderground v.1.15,2013-10-07 08:30:00,
2013-10-07 04:35:00,74.0,68.5,29.80,ESE,114,0.0,0.0,83,0.00,,,0.00,Wunderground v.1.15,2013-10-07 08:35:00,
2013-10-07 04:40:00,73.9,68.4,29.79,ESE,114,0.0,2.0,83,0.00,,,0.00,Wunderground v.1.15,2013-10-07 08:40:00,
2013-10-07 04:45:00,74.0,68.5,29.79,ESE,114,1.0,2.0,83,0.00,,,0.00,Wunderground v.1.15,2013-10-07 08:45:00,
2013-10-07 04:50:00,74.0,68.5,29.79,ESE,114,1.0,1.0,83,0.00,,,0.00,Wunderground v.1.15,2013-10-07 08:50:00,
2013-10-07 04:55:00,73.9,68.4,29.79,ESE,114,0.0,1.0,83,0.00,,,0.00,Wunderground v.1.15,2013-10-07 08:55:00,
2013-10-07 05:00:00,73.8,68.3,29.79,ESE,114,0.0,0.0,83,0.00,,,0.00,Wunderground v.1.15,2013-10-07 09:00:00,
2013-10-07 05:05:00,73.4,67.9,29.80,ESE,114,0.0,0.0,83,0.00,,,0.00,Wunderground v.1.15,2013-10-07 09:05:00,
2013-10-07 05:10:00,73.1,67.6,29.80,ESE,114,0.0,0.0,83,0.00,,,0.00,Wunderground v.1.15,2013-10-07 09:10:00,
2013-10-07 05:15:00,73.0,67.5,29.80,ESE,114,0.0,0.0,83,0.00,,,0.00,Wunderground v.1.15,2013-10-07 09:15:00,
2013-10-07 05:20:00,72.9,67.4,29.80,ESE,114,0.0,0.0,83,0.00,,,0.00,Wunderground v.1.15,2013-10-07 09:20:00,
2013-10-07 05:25:00,72.8,67.3,29.79,ESE,114,0.0,0.0,83,0.00,,,0.00,Wunderground v.1.15,2013-10-07 09:25:00,
2013-10-07 05:30:00,72.8,67.3,29.80,ESE,114,0.0,0.0,83,0.00,,,0.00,Wunderground v.1.15,2013-10-07 09:30:00,
2013-10-07 05:35:00,72.8,67.3,29.80,ESE,114,0.0,0.0,83,0.00,,,0.00,Wunderground v.1.15,2013-10-07 09:35:00,
2013-10-07 05:45:00,72.7,67.2,29.80,ESE,114,0.0,0.0,83,0.00,,,0.00,Wunderground v.1.15,2013-10-07 09:45:00,
2013-10-07 05:50:00,72.6,67.1,29.80,ESE,114,0.0,0.0,83,0.00,,,0.00,Wunderground v.1.15,2013-10-07 09:50:00,
2013-10-07 05:55:00,72.4,66.9,29.80,ESE,114,0.0,0.0,83,0.00,,,0.00,Wunderground v.1.15,2013-10-07 09:55:00,
2013-10-07 06:00:00,72.3,66.8,29.80,ESE,114,0.0,0.0,83,0.00,,,0.00,Wunderground v.1.15,2013-10-07 10:00:00,
2013-10-07 06:05:00,72.5,67.0,29.80,ESE,114,0.0,0.0,83,0.00,,,0.00,Wunderground v.1.15,2013-10-07 10:05:00,
2013-10-07 06:10:00,72.8,67.3,29.80,ESE,114,0.0,2.0,83,0.00,,,0.00,Wunderground v.1.15,2013-10-07 10:10:00,
2013-10-07 06:15:00,73.1,67.6,29.80,ESE,114,0.0,2.0,83,0.00,,,0.00,Wunderground v.1.15,2013-10-07 10:15:00,
2013-10-07 06:20:00,73.2,67.7,29.80,ESE,114,0.0,0.0,83,0.00,,,0.00,Wunderground v.1.15,2013-10-07 10:20:00,
2013-10-07 06:25:00,73.2,67.7,29.80,ESE,114,0.0,0.0,83,0.00,,,0.00,Wunderground v.1.15,2013-10-07 10:25:00,
2013-10-07 06:35:00,73.1,67.6,29.80,ESE,114,0.0,0.0,83,0.00,,,0.00,Wunderground v.1.15,2013-10-07 10:35:00,
2013-10-07 06:45:00,73.3,67.8,29.80,ESE,114,1.0,2.0,83,0.00,,,0.00,Wunderground v.1.15,2013-10-07 10:45:00,
2013-10-07 06:50:00,73.4,67.9,29.80,ESE,114,1.0,1.0,83,0.00,,,0.00,Wunderground v.1.15,2013-10-07 10:50:00,
2013-10-07 06:55:00,73.4,67.9,29.80,ESE,114,0.0,1.0,83,0.00,,,0.00,Wunderground v.1.15,2013-10-07 10:55:00,
2013-10-07 07:00:00,73.4,67.9,29.80,ESE,114,0.0,2.0,83,0.00,,,0.00,Wunderground v.1.15,2013-10-07 11:00:00,
2013-10-07 07:05:00,73.5,67.7,29.80,ESE,114,1.0,2.0,82,0.00,,,0.00,Wunderground v.1.15,2013-10-07 11:05:00,
2013-10-07 07:10:00,73.7,67.9,29.80,ESE,114,0.0,0.0,82,0.00,,,0.00,Wunderground v.1.15,2013-10-07 11:10:00,
2013-10-07 07:15:00,73.7,67.9,29.80,ESE,114,0.0,0.0,82,0.00,,,0.00,Wunderground v.1.15,2013-10-07 11:15:00,
2013-10-07 07:20:00,73.7,67.9,29.80,ESE,114,0.0,0.0,82,0.00,,,0.00,Wunderground v.1.15,2013-10-07 11:20:00,
2013-10-07 07:30:00,73.6,67.8,29.80,ESE,114,0.0,0.0,82,0.00,,,0.00,Wunderground v.1.15,2013-10-07 11:30:00,
2013-10-07 07:35:00,73.7,67.9,29.80,ESE,114,1.0,2.0,82,0.00,,,0.00,Wunderground v.1.15,2013-10-07 11:35:00,
2013-10-07 07:40:00,73.9,68.1,29.80,ESE,114,2.0,2.0,82,0.00,,,0.00,Wunderground v.1.15,2013-10-07 11:40:00,
2013-10-07 07:45:00,74.1,68.3,29.80,ESE,114,3.0,3.0,82,0.00,,,0.00,Wunderground v.1.15,2013-10-07 11:45:00,
2013-10-07 07:50:00,74.4,68.5,29.80,ESE,114,3.0,3.0,82,0.00,,,0.00,Wunderground v.1.15,2013-10-07 11:50:00,
2013-10-07 07:55:00,74.8,68.9,29.80,ESE,114,3.0,3.0,82,0.00,,,0.00,Wunderground v.1.15,2013-10-07 11:55:00,
2013-10-07 08:00:00,75.1,69.2,29.80,ESE,114,3.0,7.0,82,0.00,,,0.00,Wunderground v.1.15,2013-10-07 12:00:00,
2013-10-07 08:05:00,75.4,69.5,29.80,ESE,114,4.0,7.0,82,0.00,,,0.00,Wunderground v.1.15,2013-10-07 12:05:00,
2013-10-07 08:10:00,75.5,69.6,29.80,ESE,114,4.0,4.0,82,0.00,,,0.00,Wunderground v.1.15,2013-10-07 12:10:00,
2013-10-07 08:15:00,75.6,69.7,29.80,ESE,114,4.0,4.0,82,0.00,,,0.00,Wunderground v.1.15,2013-10-07 12:15:00,
2013-10-07 08:20:00,75.9,70.0,29.80,SE,138,4.0,4.0,82,0.00,,,0.00,Wunderground v.1.15,2013-10-07 12:20:00,
2013-10-07 08:25:00,76.1,70.2,29.80,SSE,151,4.0,6.0,82,0.00,,,0.00,Wunderground v.1.15,2013-10-07 12:25:00,
2013-10-07 08:30:00,76.2,70.7,29.81,SSE,156,5.0,5.0,83,0.00,,,0.00,Wunderground v.1.15,2013-10-07 12:30:00,
2013-10-07 08:35:00,76.1,70.6,29.81,South,169,5.0,5.0,83,0.00,,,0.00,Wunderground v.1.15,2013-10-07 12:35:00,
2013-10-07 08:40:00,76.3,70.8,29.81,South,173,4.0,4.0,83,0.00,,,0.00,Wunderground v.1.15,2013-10-07 12:40:00,
2013-10-07 08:45:00,76.7,71.1,29.81,South,176,5.0,9.0,83,0.00,,,0.00,Wunderground v.1.15,2013-10-07 12:45:00,
2013-10-07 08:50:00,77.0,71.4,29.81,South,187,5.0,6.0,83,0.00,,,0.00,Wunderground v.1.15,2013-10-07 12:50:00,
2013-10-07 08:55:00,77.6,72.0,29.81,South,186,4.0,6.0,83,0.00,,,0.00,Wunderground v.1.15,2013-10-07 12:55:00,
2013-10-07 09:00:00,77.9,72.3,29.82,South,186,4.0,5.0,83,0.00,,,0.00,Wunderground v.1.15,2013-10-07 13:00:00,
2013-10-07 09:05:00,77.8,72.2,29.82,South,184,4.0,5.0,83,0.00,,,0.00,Wunderground v.1.15,2013-10-07 13:05:00,
2013-10-07 09:10:00,77.4,71.8,29.82,South,179,5.0,5.0,83,0.00,,,0.00,Wunderground v.1.15,2013-10-07 13:10:00,
2013-10-07 09:15:00,77.1,71.5,29.82,South,180,4.0,5.0,83,0.00,,,0.00,Wunderground v.1.15,2013-10-07 13:15:00,
2013-10-07 09:20:00,77.0,71.4,29.82,South,179,3.0,3.0,83,0.00,,,0.00,Wunderground v.1.15,2013-10-07 13:20:00,
2013-10-07 09:25:00,77.0,71.4,29.82,South,179,2.0,3.0,83,0.00,,,0.00,Wunderground v.1.15,2013-10-07 13:25:00,
2013-10-07 09:30:00,77.1,71.5,29.83,South,179,2.0,2.0,83,0.00,,,0.00,Wunderground v.1.15,2013-10-07 13:30:00,
2013-10-07 09:35:00,77.2,71.6,29.83,South,179,3.0,3.0,83,0.00,,,0.00,Wunderground v.1.15,2013-10-07 13:35:00,
2013-10-07 09:40:00,77.2,71.6,29.83,South,178,4.0,4.0,83,0.00,,,0.00,Wunderground v.1.15,2013-10-07 13:40:00,
2013-10-07 09:45:00,77.2,71.6,29.82,South,178,5.0,5.0,83,0.00,,,0.00,Wunderground v.1.15,2013-10-07 13:45:00,
2013-10-07 09:55:00,77.2,71.6,29.82,South,179,3.0,4.0,83,0.00,,,0.00,Wunderground v.1.15,2013-10-07 13:55:00,
2013-10-07 10:05:00,77.5,71.9,29.82,South,179,2.0,2.0,83,0.00,,,0.00,Wunderground v.1.15,2013-10-07 14:05:00,
2013-10-07 10:10:00,77.8,72.2,29.82,South,179,1.0,1.0,83,0.00,,,0.00,Wunderground v.1.15,2013-10-07 14:10:00,
2013-10-07 10:15:00,78.2,72.6,29.82,South,180,1.0,2.0,83,0.00,,,0.00,Wunderground v.1.15,2013-10-07 14:15:00,
2013-10-07 10:20:00,78.3,72.7,29.82,South,179,2.0,4.0,83,0.00,,,0.00,Wunderground v.1.15,2013-10-07 14:20:00,
2013-10-07 10:25:00,78.7,73.1,29.82,South,179,2.0,4.0,83,0.00,,,0.00,Wunderground v.1.15,2013-10-07 14:25:00,
2013-10-07 10:30:00,79.5,73.9,29.83,South,180,3.0,6.0,83,0.00,,,0.00,Wunderground v.1.15,2013-10-07 14:30:00,
2013-10-07 10:35:00,80.3,74.3,29.83,South,171,5.0,7.0,82,0.00,,,0.00,Wunderground v.1.15,2013-10-07 14:35:00,
2013-10-07 10:40:00,80.7,74.7,29.83,SSE,165,7.0,7.0,82,0.00,,,0.00,Wunderground v.1.15,2013-10-07 14:40:00,
2013-10-07 10:45:00,81.2,74.8,29.83,South,175,7.0,7.0,81,0.00,,,0.00,Wunderground v.1.15,2013-10-07 14:45:00,
2013-10-07 10:50:00,81.8,75.4,29.83,SSE,156,6.0,10.0,81,0.00,,,0.00,Wunderground v.1.15,2013-10-07 14:50:00,
2013-10-07 10:55:00,82.0,75.6,29.83,SSE,159,6.0,10.0,81,0.00,,,0.00,Wunderground v.1.15,2013-10-07 14:55:00,
2013-10-07 11:05:00,82.3,75.5,29.82,SSE,166,7.0,7.0,80,0.00,,,0.00,Wunderground v.1.15,2013-10-07 15:05:00,
2013-10-07 11:10:00,82.0,75.2,29.82,SSE,157,7.0,7.0,80,0.00,,,0.00,Wunderground v.1.15,2013-10-07 15:10:00,
2013-10-07 11:15:00,81.6,74.8,29.82,SSE,160,6.0,7.0,80,0.00,,,0.01,Wunderground v.1.15,2013-10-07 15:15:00,
2013-10-07 11:20:00,81.4,74.6,29.82,SSE,160,5.0,5.0,80,0.00,,,0.01,Wunderground v.1.15,2013-10-07 15:20:00,
2013-10-07 11:25:00,81.4,75.0,29.82,SSE,164,6.0,6.0,81,0.00,,,0.01,Wunderground v.1.15,2013-10-07 15:25:00,
2013-10-07 11:30:00,81.5,75.1,29.82,SSE,156,7.0,7.0,81,0.00,,,0.01,Wunderground v.1.15,2013-10-07 15:30:00,
2013-10-07 11:35:00,81.5,75.1,29.82,SSE,154,7.0,7.0,81,0.00,,,0.01,Wunderground v.1.15,2013-10-07 15:35:00,
2013-10-07 11:40:00,81.4,75.0,29.81,SSE,157,7.0,7.0,81,0.00,,,0.01,Wunderground v.1.15,2013-10-07 15:40:00,
2013-10-07 11:45:00,81.5,75.1,29.81,SSE,168,8.0,11.0,81,0.00,,,0.01,Wunderground v.1.15,2013-10-07 15:45:00,
2013-10-07 11:50:00,81.7,75.3,29.81,SSE,157,8.0,11.0,81,0.00,,,0.01,Wunderground v.1.15,2013-10-07 15:50:00,
2013-10-07 11:55:00,81.0,74.6,29.82,South,188,9.0,11.0,81,0.00,,,0.01,Wunderground v.1.15,2013-10-07 15:55:00,
2013-10-07 12:05:00,77.0,71.4,29.82,South,178,5.0,8.0,83,0.60,,,0.20,Wunderground v.1.15,2013-10-07 16:05:00,
2013-10-07 12:10:00,76.3,70.8,29.82,South,172,6.0,6.0,83,0.27,,,0.23,Wunderground v.1.15,2013-10-07 16:10:00,
2013-10-07 12:20:00,76.0,70.5,29.81,SSW,207,4.0,4.0,83,0.06,,,0.24,Wunderground v.1.15,2013-10-07 16:20:00,
2013-10-07 12:25:00,76.0,70.5,29.81,South,169,4.0,4.0,83,0.04,,,0.24,Wunderground v.1.15,2013-10-07 16:25:00,
2013-10-07 12:30:00,76.0,70.5,29.81,South,169,3.0,3.0,83,0.00,,,0.24,Wunderground v.1.15,2013-10-07 16:30:00,
2013-10-07 12:35:00,76.1,70.6,29.81,South,169,2.0,3.0,83,0.00,,,0.24,Wunderground v.1.15,2013-10-07 16:35:00,
2013-10-07 12:40:00,76.2,70.7,29.81,South,169,2.0,2.0,83,0.00,,,0.24,Wunderground v.1.15,2013-10-07 16:40:00,
2013-10-07 12:45:00,76.5,70.9,29.80,South,169,1.0,2.0,83,0.00,,,0.24,Wunderground v.1.15,2013-10-07 16:45:00,
2013-10-07 12:50:00,76.8,71.2,29.80,South,171,2.0,3.0,83,0.00,,,0.24,Wunderground v.1.15,2013-10-07 16:50:00,
2013-10-07 12:55:00,77.3,71.7,29.80,South,171,3.0,3.0,83,0.00,,,0.24,Wunderground v.1.15,2013-10-07 16:55:00,
2013-10-07 13:00:00,77.6,72.0,29.80,SSE,159,3.0,3.0,83,0.00,,,0.24,Wunderground v.1.15,2013-10-07 17:00:00,
2013-10-07 13:05:00,78.0,72.4,29.79,SSE,163,4.0,4.0,83,0.00,,,0.24,Wunderground v.1.15,2013-10-07 17:05:00,
2013-10-07 13:10:00,78.2,72.6,29.79,South,175,4.0,5.0,83,0.00,,,0.24,Wunderground v.1.15,2013-10-07 17:10:00,
2013-10-07 13:15:00,78.5,72.5,29.79,SSE,165,4.0,5.0,82,0.00,,,0.24,Wunderground v.1.15,2013-10-07 17:15:00,
2013-10-07 13:25:00,79.0,73.0,29.78,South,175,5.0,5.0,82,0.00,,,0.24,Wunderground v.1.15,2013-10-07 17:25:00,
2013-10-07 13:30:00,79.4,73.8,29.78,South,178,5.0,5.0,83,0.00,,,0.24,Wunderground v.1.15,2013-10-07 17:30:00,
2013-10-07 13:35:00,79.7,74.1,29.78,South,178,5.0,6.0,83,0.00,,,0.24,Wunderground v.1.15,2013-10-07 17:35:00,
2013-10-07 13:40:00,80.1,74.5,29.77,South,175,6.0,6.0,83,0.00,,,0.24,Wunderground v.1.15,2013-10-07 17:40:00,
2013-10-07 13:45:00,80.3,74.7,29.77,SSE,167,6.0,6.0,83,0.00,,,0.24,Wunderground v.1.15,2013-10-07 17:45:00,
2013-10-07 13:50:00,80.2,74.6,29.77,South,182,6.0,6.0,83,0.00,,,0.24,Wunderground v.1.15,2013-10-07 17:50:00,
2013-10-07 13:55:00,80.2,74.6,29.76,South,176,7.0,7.0,83,0.00,,,0.24,Wunderground v.1.15,2013-10-07 17:55:00,
2013-10-07 14:00:00,80.5,74.9,29.76,South,175,6.0,6.0,83,0.00,,,0.24,Wunderground v.1.15,2013-10-07 18:00:00,
2013-10-07 14:05:00,80.7,75.1,29.76,South,180,5.0,8.0,83,0.00,,,0.24,Wunderground v.1.15,2013-10-07 18:05:00,
2013-10-07 14:15:00,81.3,75.6,29.76,South,170,6.0,6.0,83,0.00,,,0.24,Wunderground v.1.15,2013-10-07 18:15:00,
2013-10-07 14:20:00,81.5,75.8,29.76,SSE,162,5.0,6.0,83,0.00,,,0.24,Wunderground v.1.15,2013-10-07 18:20:00,
2013-10-07 14:25:00,82.0,76.3,29.76,South,171,5.0,6.0,83,0.00,,,0.24,Wunderground v.1.15,2013-10-07 18:25:00,
2013-10-07 14:30:00,82.1,76.1,29.76,SSE,151,6.0,10.0,82,0.00,,,0.24,Wunderground v.1.15,2013-10-07 18:30:00,
2013-10-07 14:35:00,81.9,75.9,29.76,SSE,163,6.0,10.0,82,0.00,,,0.24,Wunderground v.1.15,2013-10-07 18:35:00,
2013-10-07 14:40:00,81.7,75.7,29.75,SSE,163,6.0,6.0,82,0.00,,,0.24,Wunderground v.1.15,2013-10-07 18:40:00,
2013-10-07 14:45:00,82.4,76.3,29.75,SSE,165,6.0,6.0,82,0.00,,,0.24,Wunderground v.1.15,2013-10-07 18:45:00,
2013-10-07 14:50:00,83.0,76.9,29.75,South,187,6.0,11.0,82,0.00,,,0.24,Wunderground v.1.15,2013-10-07 18:50:00,
2013-10-07 14:55:00,83.8,77.7,29.74,South,169,5.0,11.0,82,0.00,,,0.24,Wunderground v.1.15,2013-10-07 18:55:00,
2013-10-07 15:00:00,84.1,77.6,29.74,SSE,155,6.0,7.0,81,0.00,,,0.24,Wunderground v.1.15,2013-10-07 19:00:00,
2013-10-07 15:05:00,84.0,77.5,29.73,South,170,7.0,7.0,81,0.00,,,0.24,Wunderground v.1.15,2013-10-07 19:05:00,
2013-10-07 15:10:00,84.4,77.9,29.73,South,169,7.0,7.0,81,0.00,,,0.24,Wunderground v.1.15,2013-10-07 19:10:00,
2013-10-07 15:15:00,84.3,77.5,29.73,South,182,7.0,12.0,80,0.00,,,0.24,Wunderground v.1.15,2013-10-07 19:15:00,
2013-10-07 15:20:00,84.2,77.7,29.73,SSE,160,8.0,10.0,81,0.00,,,0.24,Wunderground v.1.15,2013-10-07 19:20:00,
2013-10-07 15:25:00,84.8,78.3,29.72,SSE,165,7.0,10.0,81,0.00,,,0.24,Wunderground v.1.15,2013-10-07 19:25:00,
2013-10-07 15:30:00,85.1,77.8,29.72,South,180,6.0,8.0,79,0.00,,,0.24,Wunderground v.1.15,2013-10-07 19:30:00,
2013-10-07 15:35:00,84.9,78.0,29.72,South,180,6.0,8.0,80,0.00,,,0.24,Wunderground v.1.15,2013-10-07 19:35:00,
2013-10-07 15:40:00,84.8,77.9,29.72,South,188,7.0,7.0,80,0.00,,,0.24,Wunderground v.1.15,2013-10-07 19:40:00,
2013-10-07 15:45:00,84.9,78.0,29.72,SSE,167,6.0,7.0,80,0.00,,,0.24,Wunderground v.1.15,2013-10-07 19:45:00,
2013-10-07 15:50:00,84.6,77.7,29.72,South,182,7.0,7.0,80,0.00,,,0.24,Wunderground v.1.15,2013-10-07 19:50:00,
2013-10-07 15:55:00,84.3,77.5,29.72,South,170,6.0,7.0,80,0.00,,,0.24,Wunderground v.1.15,2013-10-07 19:55:00,
2013-10-07 16:00:00,84.1,77.3,29.71,SSW,206,5.0,9.0,80,0.00,,,0.24,Wunderground v.1.15,2013-10-07 20:00:00,
2013-10-07 16:05:00,83.8,77.3,29.72,SSE,167,7.0,9.0,81,0.00,,,0.24,Wunderground v.1.15,2013-10-07 20:05:00,
2013-10-07 16:10:00,83.6,77.1,29.72,South,178,7.0,7.0,81,0.00,,,0.24,Wunderground v.1.15,2013-10-07 20:10:00,
2013-10-07 16:15:00,83.3,76.9,29.72,SSE,167,6.0,7.0,81,0.00,,,0.24,Wunderground v.1.15,2013-10-07 20:15:00,
2013-10-07 16:20:00,83.2,76.8,29.73,SSE,159,7.0,9.0,81,0.00,,,0.24,Wunderground v.1.15,2013-10-07 20:20:00,
2013-10-07 16:25:00,83.9,77.8,29.72,South,184,8.0,9.0,82,0.00,,,0.24,Wunderground v.1.15,2013-10-07 20:25:00,
2013-10-07 16:30:00,84.5,78.0,29.72,South,180,7.0,7.0,81,0.00,,,0.24,Wunderground v.1.15,2013-10-07 20:30:00,
2013-10-07 16:35:00,84.5,78.0,29.72,South,181,7.0,7.0,81,0.00,,,0.24,Wunderground v.1.15,2013-10-07 20:35:00,
2013-10-07 16:40:00,84.5,78.0,29.72,SSE,156,5.0,5.0,81,0.00,,,0.24,Wunderground v.1.15,2013-10-07 20:40:00,
2013-10-07 16:45:00,83.7,76.9,29.73,SSE,164,6.0,8.0,80,0.00,,,0.24,Wunderground v.1.15,2013-10-07 20:45:00,
2013-10-07 16:55:00,82.5,75.7,29.73,South,177,6.0,7.0,80,0.00,,,0.24,Wunderground v.1.15,2013-10-07 20:55:00,
2013-10-07 17:00:00,81.8,75.4,29.73,SSE,161,6.0,6.0,81,0.00,,,0.24,Wunderground v.1.15,2013-10-07 21:00:00,
2013-10-07 17:05:00,81.5,75.1,29.73,South,179,6.0,6.0,81,0.00,,,0.24,Wunderground v.1.15,2013-10-07 21:05:00,
2013-10-07 17:15:00,81.2,75.2,29.73,SSE,164,4.0,6.0,82,0.00,,,0.24,Wunderground v.1.15,2013-10-07 21:15:00,
2013-10-07 17:20:00,81.3,75.3,29.72,SSE,161,5.0,5.0,82,0.00,,,0.24,Wunderground v.1.15,2013-10-07 21:20:00,
2013-10-07 17:25:00,81.3,75.3,29.72,SSE,165,4.0,5.0,82,0.00,,,0.24,Wunderground v.1.15,2013-10-07 21:25:00,
2013-10-07 17:30:00,81.1,75.1,29.74,SW,234,3.0,9.0,82,0.00,,,0.25,Wunderground v.1.15,2013-10-07 21:30:00,
2013-10-07 17:35:00,79.2,72.9,29.75,SW,214,3.0,9.0,81,0.61,,,0.29,Wunderground v.1.15,2013-10-07 21:35:00,
2013-10-07 17:40:00,77.5,71.6,29.74,SW,214,2.0,2.0,82,0.10,,,0.29,Wunderground v.1.15,2013-10-07 21:40:00,
2013-10-07 17:45:00,76.2,70.3,29.75,SW,214,0.0,2.0,82,0.05,,,0.29,Wunderground v.1.15,2013-10-07 21:45:00,
2013-10-07 17:50:00,75.1,69.6,29.75,SSW,198,1.0,3.0,83,0.04,,,0.29,Wunderground v.1.15,2013-10-07 21:50:00,
2013-10-07 17:55:00,74.3,68.8,29.75,SSW,198,2.0,3.0,83,0.00,,,0.29,Wunderground v.1.15,2013-10-07 21:55:00,
2013-10-07 18:00:00,73.8,68.3,29.74,SSW,196,1.0,2.0,83,0.00,,,0.30,Wunderground v.1.15,2013-10-07 22:00:00,
2013-10-07 18:05:00,73.5,68.0,29.74,SSE,163,2.0,2.0,83,0.07,,,0.31,Wunderground v.1.15,2013-10-07 22:05:00,
2013-10-07 18:15:00,73.4,68.3,29.74,SSE,163,1.0,2.0,84,0.06,,,0.31,Wunderground v.1.15,2013-10-07 22:15:00,
2013-10-07 18:20:00,73.7,68.6,29.73,SSE,163,1.0,1.0,84,0.04,,,0.31,Wunderground v.1.15,2013-10-07 22:20:00,
2013-10-07 18:25:00,73.8,68.7,29.73,SSE,163,1.0,1.0,84,0.00,,,0.31,Wunderground v.1.15,2013-10-07 22:25:00,
2013-10-07 18:30:00,73.9,68.8,29.74,SSE,163,0.0,0.0,84,0.00,,,0.31,Wunderground v.1.15,2013-10-07 22:30:00,
2013-10-07 18:35:00,74.0,68.9,29.74,SSE,163,0.0,0.0,84,0.00,,,0.31,Wunderground v.1.15,2013-10-07 22:35:00,
2013-10-07 18:40:00,74.0,68.9,29.74,SSE,163,0.0,0.0,84,0.00,,,0.31,Wunderground v.1.15,2013-10-07 22:40:00,
2013-10-07 18:45:00,74.1,69.0,29.74,SSE,163,0.0,0.0,84,0.00,,,0.31,Wunderground v.1.15,2013-10-07 22:45:00,
2013-10-07 18:50:00,74.3,68.8,29.74,SSE,163,0.0,0.0,83,0.00,,,0.31,Wunderground v.1.15,2013-10-07 22:50:00,
2013-10-07 18:55:00,74.6,69.4,29.75,SSE,163,0.0,0.0,84,0.00,,,0.31,Wunderground v.1.15,2013-10-07 22:55:00,
2013-10-07 19:00:00,74.9,69.7,29.75,SSE,163,0.0,0.0,84,0.00,,,0.31,Wunderground v.1.15,2013-10-07 23:00:00,
2013-10-07 19:05:00,75.1,69.6,29.75,SSE,163,0.0,0.0,83,0.00,,,0.31,Wunderground v.1.15,2013-10-07 23:05:00,
2013-10-07 19:10:00,75.1,69.6,29.75,SSE,163,0.0,0.0,83,0.00,,,0.31,Wunderground v.1.15,2013-10-07 23:10:00,
2013-10-07 19:15:00,75.2,69.7,29.75,SSE,163,0.0,0.0,83,0.00,,,0.31,Wunderground v.1.15,2013-10-07 23:15:00,
2013-10-07 19:20:00,75.1,69.6,29.75,SSE,163,0.0,0.0,83,0.00,,,0.31,Wunderground v.1.15,2013-10-07 23:20:00,
2013-10-07 19:25:00,75.1,69.6,29.75,SSE,163,0.0,0.0,83,0.00,,,0.31,Wunderground v.1.15,2013-10-07 23:25:00,
2013-10-07 19:30:00,75.0,69.5,29.75,SSE,163,0.0,0.0,83,0.00,,,0.31,Wunderground v.1.15,2013-10-07 23:30:00,
2013-10-07 19:35:00,75.0,69.5,29.75,SSE,163,0.0,0.0,83,0.00,,,0.31,Wunderground v.1.15,2013-10-07 23:35:00,
2013-10-07 19:40:00,75.1,69.6,29.75,SSE,163,0.0,0.0,83,0.00,,,0.31,Wunderground v.1.15,2013-10-07 23:40:00,
2013-10-07 19:45:00,75.2,69.7,29.76,SSE,163,0.0,0.0,83,0.00,,,0.31,Wunderground v.1.15,2013-10-07 23:45:00,
2013-10-07 19:50:00,75.3,69.8,29.76,SSE,163,0.0,0.0,83,0.00,,,0.31,Wunderground v.1.15,2013-10-07 23:50:00,
2013-10-07 19:55:00,75.4,69.9,29.76,SSE,163,0.0,0.0,83,0.00,,,0.31,Wunderground v.1.15,2013-10-07 23:55:00,
2013-10-07 20:00:00,75.4,69.9,29.76,SSE,163,0.0,0.0,83,0.00,,,0.31,Wunderground v.1.15,2013-10-08 00:00:00,
2013-10-07 20:05:00,75.4,69.9,29.76,SSE,163,0.0,0.0,83,0.00,,,0.31,Wunderground v.1.15,2013-10-08 00:05:00,
2013-10-07 20:10:00,75.3,69.8,29.76,SSE,163,0.0,0.0,83,0.00,,,0.31,Wunderground v.1.15,2013-10-08 00:10:00,
2013-10-07 20:15:00,75.4,69.9,29.76,SSE,163,0.0,0.0,83,0.00,,,0.31,Wunderground v.1.15,2013-10-08 00:15:00,
2013-10-07 20:20:00,75.4,69.9,29.76,SSE,163,0.0,0.0,83,0.00,,,0.31,Wunderground v.1.15,2013-10-08 00:20:00,
2013-10-07 20:25:00,75.6,70.1,29.76,SSE,163,0.0,0.0,83,0.00,,,0.31,Wunderground v.1.15,2013-10-08 00:25:00,
2013-10-07 20:30:00,75.8,70.3,29.76,SSE,163,0.0,0.0,83,0.00,,,0.31,Wunderground v.1.15,2013-10-08 00:30:00,
2013-10-07 20:35:00,75.8,70.3,29.76,SSE,163,0.0,0.0,83,0.00,,,0.31,Wunderground v.1.15,2013-10-08 00:35:00,
2013-10-07 20:40:00,75.8,70.3,29.77,SSE,163,0.0,0.0,83,0.00,,,0.31,Wunderground v.1.15,2013-10-08 00:40:00,
2013-10-07 20:45:00,75.8,70.3,29.77,SSE,163,0.0,0.0,83,0.00,,,0.31,Wunderground v.1.15,2013-10-08 00:45:00,
2013-10-07 20:50:00,75.8,70.3,29.77,SSE,163,0.0,0.0,83,0.00,,,0.31,Wunderground v.1.15,2013-10-08 00:50:00,
2013-10-07 20:55:00,75.7,70.2,29.78,SSE,163,0.0,0.0,83,0.00,,,0.31,Wunderground v.1.15,2013-10-08 00:55:00,
2013-10-07 21:00:00,75.6,70.1,29.78,SSE,163,0.0,0.0,83,0.00,,,0.31,Wunderground v.1.15,2013-10-08 01:00:00,
2013-10-07 21:05:00,75.6,70.1,29.78,SSE,163,0.0,0.0,83,0.00,,,0.31,Wunderground v.1.15,2013-10-08 01:05:00,
2013-10-07 21:10:00,75.6,70.1,29.78,SSE,163,0.0,0.0,83,0.00,,,0.31,Wunderground v.1.15,2013-10-08 01:10:00,
2013-10-07 21:15:00,75.6,70.1,29.78,SSE,163,0.0,0.0,83,0.00,,,0.31,Wunderground v.1.15,2013-10-08 01:15:00,
2013-10-07 21:20:00,75.6,70.1,29.77,SSE,163,0.0,0.0,83,0.00,,,0.31,Wunderground v.1.15,2013-10-08 01:20:00,
2013-10-07 21:25:00,75.5,70.0,29.78,SSE,163,0.0,0.0,83,0.00,,,0.31,Wunderground v.1.15,2013-10-08 01:25:00,
2013-10-07 21:30:00,75.5,70.0,29.78,SSE,163,0.0,0.0,83,0.00,,,0.31,Wunderground v.1.15,2013-10-08 01:30:00,
2013-10-07 21:35:00,75.6,70.1,29.78,SSE,163,0.0,0.0,83,0.00,,,0.31,Wunderground v.1.15,2013-10-08 01:35:00,
2013-10-07 21:40:00,75.7,70.2,29.78,SSE,163,0.0,0.0,83,0.00,,,0.31,Wunderground v.1.15,2013-10-08 01:40:00,
2013-10-07 21:50:00,75.8,69.9,29.77,SSE,163,0.0,0.0,82,0.00,,,0.31,Wunderground v.1.15,2013-10-08 01:50:00,
2013-10-07 21:55:00,75.8,69.9,29.78,SSE,163,0.0,0.0,82,0.00,,,0.31,Wunderground v.1.15,2013-10-08 01:55:00,
2013-10-07 22:00:00,75.8,69.9,29.78,SSE,163,0.0,0.0,82,0.00,,,0.31,Wunderground v.1.15,2013-10-08 02:00:00,
2013-10-07 22:05:00,75.9,70.0,29.78,SSE,163,0.0,0.0,82,0.00,,,0.31,Wunderground v.1.15,2013-10-08 02:05:00,
2013-10-07 22:10:00,76.0,70.1,29.78,SSE,163,0.0,0.0,82,0.00,,,0.31,Wunderground v.1.15,2013-10-08 02:10:00,
2013-10-07 22:15:00,76.0,70.1,29.78,SSE,163,0.0,0.0,82,0.00,,,0.31,Wunderground v.1.15,2013-10-08 02:15:00,
2013-10-07 22:20:00,76.0,70.1,29.78,SSE,165,1.0,2.0,82,0.00,,,0.31,Wunderground v.1.15,2013-10-08 02:20:00,
2013-10-07 22:25:00,76.0,70.1,29.78,SSE,168,2.0,3.0,82,0.00,,,0.31,Wunderground v.1.15,2013-10-08 02:25:00,
2013-10-07 22:30:00,76.0,70.1,29.78,South,171,2.0,2.0,82,0.00,,,0.31,Wunderground v.1.15,2013-10-08 02:30:00,
2013-10-07 22:35:00,76.0,70.1,29.78,South,171,1.0,2.0,82,0.00,,,0.31,Wunderground v.1.15,2013-10-08 02:35:00,
2013-10-07 22:40:00,75.9,70.0,29.78,South,171,1.0,2.0,82,0.00,,,0.31,Wunderground v.1.15,2013-10-08 02:40:00,
2013-10-07 22:45:00,75.9,70.0,29.78,South,171,1.0,3.0,82,0.00,,,0.31,Wunderground v.1.15,2013-10-08 02:45:00,
2013-10-07 22:50:00,75.8,69.9,29.78,South,171,1.0,1.0,82,0.00,,,0.31,Wunderground v.1.15,2013-10-08 02:50:00,
2013-10-07 22:55:00,75.8,69.9,29.78,South,171,1.0,2.0,82,0.00,,,0.31,Wunderground v.1.15,2013-10-08 02:55:00,
2013-10-07 23:00:00,75.8,69.9,29.78,South,171,2.0,4.0,82,0.00,,,0.31,Wunderground v.1.15,2013-10-08 03:00:00,
2013-10-07 23:05:00,75.8,69.9,29.78,South,171,2.0,4.0,82,0.00,,,0.31,Wunderground v.1.15,2013-10-08 03:05:00,
2013-10-07 23:10:00,75.8,69.9,29.78,South,171,1.0,2.0,82,0.00,,,0.31,Wunderground v.1.15,2013-10-08 03:10:00,
2013-10-07 23:15:00,75.8,69.9,29.79,South,171,2.0,2.0,82,0.00,,,0.31,Wunderground v.1.15,2013-10-08 03:15:00,
2013-10-07 23:20:00,75.8,69.9,29.79,South,171,2.0,2.0,82,0.00,,,0.31,Wunderground v.1.15,2013-10-08 03:20:00,
2013-10-07 23:25:00,75.7,69.8,29.79,South,172,2.0,2.0,82,0.00,,,0.31,Wunderground v.1.15,2013-10-08 03:25:00,
2013-10-07 23:35:00,75.7,69.8,29.79,South,172,2.0,4.0,82,0.00,,,0.31,Wunderground v.1.15,2013-10-08 03:35:00,
2013-10-07 23:40:00,75.7,69.8,29.79,South,172,2.0,2.0,82,0.00,,,0.31,Wunderground v.1.15,2013-10-08 03:40:00,
2013-10-07 23:45:00,75.7,69.8,29.78,South,172,2.0,2.0,82,0.00,,,0.31,Wunderground v.1.15,2013-10-08 03:45:00,
2013-10-07 23:50:00,75.6,69.7,29.78,South,172,1.0,1.0,82,0.00,,,0.31,Wunderground v.1.15,2013-10-08 03:50:00,
2013-10-07 23:55:00,75.6,69.7,29.78,South,172,1.0,1.0,82,0.00,,,0.31,Wunderground v.1.15,2013-10-08 03:55:00,